TimeCST,TemperatureF,Dew PointF,Humidity,Sea Level PressureIn,VisibilityMPH,Wind Direction,Wind SpeedMPH,Gust SpeedMPH,PrecipitationIn,Events,Conditions,WindDirDegrees,DateUTC
12:58 AM,41.0,39.9,96,30.19,9.0,Calm,Calm,-,N/A,,Scattered Clouds,0,2012-11-20 06:58:00
1:58 AM,43.0,41.0,93,30.19,10.0,Calm,Calm,-,N/A,,Partly Cloudy,0,2012-11-20 07:58:00
2:58 AM,43.0,42.1,97,30.19,9.0,Calm,Calm,-,N/A,,Clear,0,2012-11-20 08:58:00
3:58 AM,44.1,43.0,96,30.18,7.0,Calm,Calm,-,0.00,,Mostly Cloudy,0,2012-11-20 09:58:00
4:58 AM,44.1,44.1,100,30.19,9.0,Calm,Calm,-,N/A,,Overcast,0,2012-11-20 10:58:00
5:58 AM,46.0,44.1,93,30.21,10.0,Calm,Calm,-,0.00,,Overcast,0,2012-11-20 11:58:00
6:58 AM,45.0,45.0,100,30.22,5.0,Calm,Calm,-,N/A,,Overcast,0,2012-11-20 12:58:00
7:58 AM,48.9,46.0,90,30.22,10.0,Calm,Calm,-,N/A,,Mostly Cloudy,0,2012-11-20 13:58:00
8:58 AM,54.0,48.0,80,30.22,10.0,Calm,Calm,-,N/A,,Scattered Clouds,0,2012-11-20 14:58:00
9:58 AM,61.0,46.0,58,30.23,10.0,Variable,3.5,-,N/A,,Mostly Cloudy,0,2012-11-20 15:58:00
10:58 AM,66.9,45.0,45,30.21,10.0,NNE,6.9,-,N/A,,Partly Cloudy,20,2012-11-20 16:58:00
11:58 AM,66.0,44.1,45,30.17,10.0,North,3.5,-,N/A,,Clear,360,2012-11-20 17:58:00
12:58 PM,66.9,46.0,47,30.14,10.0,North,4.6,-,N/A,,Scattered Clouds,360,2012-11-20 18:58:00
1:58 PM,68.0,41.0,37,30.13,10.0,NNW,6.9,-,N/A,,Scattered Clouds,330,2012-11-20 19:58:00
2:58 PM,68.0,39.0,35,30.13,10.0,Variable,4.6,-,N/A,,Mostly Cloudy,0,2012-11-20 20:58:00
3:58 PM,66.0,41.0,40,30.13,10.0,Calm,Calm,-,N/A,,Scattered Clouds,0,2012-11-20 21:58:00
4:58 PM,57.0,48.9,74,30.12,10.0,Calm,Calm,-,N/A,,Clear,0,2012-11-20 22:58:00
5:58 PM,52.0,46.9,83,30.13,10.0,Calm,Calm,-,N/A,,Clear,0,2012-11-20 23:58:00
6:58 PM,48.9,46.0,90,30.15,10.0,Calm,Calm,-,N/A,,Clear,0,2012-11-21 00:58:00
7:58 PM,46.9,45.0,93,30.15,10.0,Calm,Calm,-,N/A,,Clear,0,2012-11-21 01:58:00
8:58 PM,45.0,44.1,97,30.17,10.0,Calm,Calm,-,N/A,,Clear,0,2012-11-21 02:58:00
9:58 PM,45.0,43.0,93,30.17,10.0,Calm,Calm,-,N/A,,Clear,0,2012-11-21 03:58:00
10:58 PM,44.1,42.1,93,30.17,10.0,Calm,Calm,-,N/A,,Clear,0,2012-11-21 04:58:00
11:58 PM,42.1,41.0,96,30.16,10.0,SSW,3.5,-,N/A,,Clear,200,2012-11-21 05:58:00